Hourly Data Report for April 23, 2018

KUGAARUK CLIMATE
NUNAVUT
Current Station Operator: ECCC - MSC

68°32'15.060" N
89°47'47.020" W
15.80 m
2303094
71407
NBB

Download Data

Hourly Data (April 2018)
Hourly Data Report for April 23, 2018
TIME
LST
Temp Definition
°C
Dew Point Definition
°C
Rel Hum Definition
%
Precip. Amount Definition
mm

Wind Dir Definition
10's deg

Wind Spd Definition
km/h
Visibility Definition
km
Stn Press Definition
kPa
Hmdx Definition


Wind Chill Definition


Weather Definition


00:00 -24.0 -27.2 75 0.0 24 26   101.90   -37 LegendNANA
01:00 -23.6 -26.9 74 0.0 25 29   101.91   -37 LegendNANA
02:00 -23.3 -26.6 74 0.2 24 27   101.92   -36 LegendNANA
03:00 -23.6 -26.8 75 0.0 24 29   101.92   -37 LegendNANA
04:00 -23.6 -26.8 75 0.0 25 29   101.91   -37 LegendNANA
05:00 -23.4 -27.1 71 0.0 25 27   101.90   -36 LegendNANA
06:00 -23.1 -27.2 69 0.0 26 18   101.88   -34 LegendNANA
07:00 -22.5 -26.7 68 0.0 25 32   101.83   -36 LegendNANA
08:00 -21.7 -25.5 72 0.0 24 29   101.80   -35 LegendNANA
09:00 -20.8 -24.5 73 0.0 25 34   101.73   -34 LegendNANA
10:00 -20.2 -24.0 72 0.0 26 29   101.71   -33 LegendNANA
11:00 -20.0 -23.7 72 0.0 25 26   101.69   -32 LegendNANA
12:00 -19.1 -22.9 72 0.0 25 28   101.68   -31 LegendNANA
13:00 -18.9 -22.6 72 0.0 24 30   101.68   -31 LegendNANA
14:00 -18.8 -21.9 76 0.0 24 31   101.64   -31 LegendNANA
15:00 -18.6 -21.7 77 0.3 25 25   101.63   -30 LegendNANA
16:00 -18.3 -21.0 80 0.0 26 34   101.52   -31 LegendNANA
17:00 -18.2 -20.7 81 0.2 25 32   101.50   -31 LegendNANA
18:00 -18.4 -21.0 80 0.0 25 29   101.47   -30 LegendNANA
19:00 -18.5 -21.0 81 0.0 25 23   101.42   -29 LegendNANA
20:00 -18.6 -21.0 82 0.2 26 26   101.37   -30 LegendNANA
21:00 -18.8 -21.1 82 0.2 24 19   101.31   -29 LegendNANA
22:00 -18.9 -21.2 82 0.0 26 21   101.29   -29 LegendNANA
23:00 -19.2 -21.5 82 0.2 26 22   101.26   -30 LegendNANA

Notes on Data Quality.

Legend

  • E = Estimated
  • M = Missing
  • NA = Not Available*
  • [empty] = Indicates an unobserved value
Date modified: